STARLINK-1234, 45190

Orbit data source: Space-Track

STARLINK-1234, 45190 is a payload satellite owned by SpaceX/Seattle (US) in LEO that was launched on Mon, 17 Feb 2020 UTC via an FALCON 9 launch vehicle from the Air Force Eastern Test Range (AFETR). Payload-class satellites include a variety of spacecraft equipped with specific instruments for various scientific and technological missions. These include communications satellites like Starlink; space stations such as the ISS; scientific satellites like the Hubble; Earth observation satellites from companies like Planet Labs, Umbra, and HawkEye 360; GPS; miniature CubeSats for education and research; and military/defense satellites.

Not visible in the next 10 days
Identifier
45190, 2020-012N
Orbit
LEO
Country
Flag of USUS
Related business
Manufacturer
SpaceX/Seattle
Mission
Partially operational Commercial Communications
Bus & Motor
STARLINK, Unknown motor
Mass
260 kg wet, ~248 kg dry
Launch date (UTC)
2020-02-17 (7 years ago)
Launch vehicle
FALCON 9
Launch site
Air Force Eastern Test Range (AFETR)
Object type
Payload
Rocket body
Debris
Shape & HBR
Box + 1 Pan, 10.1 m
Radar Cross Section
13.562 m², Large (>1 m²)

Expand to show TLE details & history
Last TLE update: 9 hours ago

TLE from 9 hours ago
0 STARLINK-1234
1 45190U 20012N   26253.86459281  .01135040  11814-4  56508-3 0  9995
2 45190  53.0203 115.7696 0006958 244.5845 115.4473 16.20117313365159
Epoch: 2026-09-10T20:45Z
TLE epoch observation values (Epoch: 2026-09-10T20:45:00.818Z)
Latitude
-0.00003°
Longitude
174.61999°
Altitude
222.127 km
Speed
7.773 km/s
True Right ascension
07h 43m 04s
True Declination
0° 00' 00"
Sunlit
Object was in daylight at epoch
Visualization orbit readout
Latitude
Unknown
Longitude
Unknown
Altitude
Unknown
Speed
Unknown
Apparent Right ascension
Unknown
Apparent Declination
Unknown
Sunlit
N/A
Visualization observer readout
Local Sidereal Time
22:31:27
Azimuth
Unknown
Elevation
Unknown
Doppler factor
Unknown
Orbital elements
Apogee altitude
224.114 km
Perigee altitude
214.932 km
Semi-major axis
6,597.66 km
Eccentricity
0.0007
Inclination
53.0203°
RAAN
115.7696°
Arg. of periapsis
244.5845°
True anomaly
115.51927°
Mean anomaly
115.4473°
Eccentric anomaly
115.48329°
Mean motion
4.05003 °/min
Orbital period
88.89 mins
BSTAR
0.00056508
Loading maneuver chart data...
Computing Atmospheric mass density...

Documentation

Showing up to 5 results
|